{"data":{"norad_id":62314,"epoch":"2026-05-25T03:56:25.024128Z","epoch_age_seconds":61598,"freshness":"FRESH","line1":"1 62314U 24239P   26145.16417852  .00013729  00000+0  47468-3 0  9991","line2":"2 62314  53.1579 198.6201 0000843  78.0231 282.0864 15.30208669 81099","mean_motion":15.30208669,"eccentricity":8.43e-5,"inclination_deg":53.1579,"raan_deg":198.6201,"arg_perigee_deg":78.0231,"mean_anomaly_deg":282.0864,"bstar":0.00047468,"rev_number":8109,"period_min":94.104812577036,"perigee_km":474.61145007269,"apogee_km":475.76692086756,"semimajor_km":6853.3261854701,"source":"CELESTRAK","updated_at":"2026-05-25T13:38:19.649827Z"}}